Weather History for KP69 - August, 2013

Change the Weather History Date:

Friday, August 23, 2013

  Actual Average Record
Temperature  
Mean Temperature 76 °F -  
Max Temperature 91 °F 84 °F 93 °F (2011)
Min Temperature 60 °F 52 °F 46 °F (1996)
Cooling Degree Days 10    
Growing Degree Days 26 (Base 50)    
Moisture  
Dew Point 59 °F    
Average Humidity 72    
Maximum Humidity 97    
Minimum Humidity 27    
Precipitation  
Precipitation 0.18 in - - ()
Sea Level Pressure  
Sea Level Pressure 29.78 in    
Wind  
Wind Speed 2 mph (NNW)    
Max Wind Speed 8 mph    
Max Gust Speed -    
Averages and records for this station are not official NWS values.
T = Trace of Precipitation, MM = Missing Value Source: NWS Daily Summary

Daily Weather History Graph

Daily Weather History Graph

Search for Another Location

Airport or City:

Trip Planner

Search our weather history database for the weather conditions in past years. The results will help you decide how hot, cold, wet, or windy it might be!

Date:

Astronomy

Aug. 23, 2013 Rise Set
Actual Time 6:52 AM MDT 8:36 PM MDT
Civil Twilight 6:20 AM MDT 9:08 PM MDT
Nautical Twilight 5:41 AM MDT 9:47 PM MDT
Astronomical Twilight 4:58 AM MDT 10:29 PM MDT
Moon 9:43 PM MDT (8/23) 10:05 AM MDT (8/23)
Length of Visible Light 14h 48m
Length of Day
13h 44m
Waning Gibbous, 91% of the Moon is Illuminated
Aug 23
Waning Gibbous
Aug 28
Last Quarter
Sep 5
New
Sep 12
First Quarter
Sep 19
Full

Hourly Weather History & Observations

Time (MDT) Temp. Heat Index Dew Point Humidity Pressure Visibility Wind Dir Wind Speed Gust Speed Precip Events Conditions
12:52 AM 66.0 °F - 62.1 °F 87% 29.91 in - South 3.5 mph - N/A   Unknown
1:52 AM 64.0 °F - 62.1 °F 93% 29.90 in - Calm Calm - 0.17 in   Unknown
2:52 AM 62.1 °F - 60.1 °F 93% 29.88 in - Calm Calm - N/A   Unknown
3:00 AM - - - N/A% - - North - - N/A   Unknown
3:52 AM 62.1 °F - 61.0 °F 96% 29.84 in - Calm Calm - N/A   Unknown
4:52 AM 61.0 °F - 60.1 °F 97% 29.82 in - Calm Calm - N/A   Unknown
5:52 AM 60.1 °F - 59.0 °F 96% 29.83 in - Calm Calm - N/A   Unknown
6:52 AM 61.0 °F - 59.0 °F 93% 29.83 in - Variable 3.5 mph - 0.01 in   Unknown
7:52 AM 61.0 °F - 60.1 °F 97% 29.83 in - NNW 3.5 mph - N/A   Unknown
8:52 AM 62.1 °F - 60.1 °F 93% 29.84 in - NNW 3.5 mph - N/A   Unknown
9:52 AM 64.0 °F - 60.1 °F 87% 29.84 in - Calm Calm - N/A   Unknown
10:52 AM 66.0 °F - 61.0 °F 84% 29.83 in - Calm Calm - N/A   Unknown
11:52 AM 73.9 °F - 59.0 °F 59% 29.81 in - Calm Calm - N/A   Unknown
12:52 PM 75.0 °F - 63.0 °F 66% 29.78 in - Calm Calm - N/A   Unknown
1:52 PM 82.0 °F 82.4 °F 60.1 °F 47% 29.74 in - North 3.5 mph - N/A   Unknown
2:52 PM 90.0 °F 88.8 °F 57.9 °F 34% 29.70 in - Calm Calm - N/A   Unknown
3:52 PM 88.0 °F 85.9 °F 54.0 °F 31% 29.68 in - SSE 8.1 mph - N/A   Unknown
4:52 PM 91.9 °F 89.5 °F 53.1 °F 27% 29.66 in - Variable 6.9 mph - N/A   Unknown
5:52 PM 84.0 °F 83.3 °F 57.0 °F 40% 29.67 in - Variable 3.5 mph - N/A   Unknown
6:52 PM 77.0 °F - 61.0 °F 58% 29.68 in - Calm Calm - N/A   Unknown
7:52 PM 75.0 °F - 62.1 °F 64% 29.70 in - Calm Calm - N/A   Unknown
8:52 PM 71.1 °F - 60.1 °F 68% 29.72 in - Calm Calm - N/A   Unknown
9:52 PM 69.1 °F - 59.0 °F 70% 29.76 in - Calm Calm - N/A   Unknown
10:52 PM 66.9 °F - 57.9 °F 73% 29.78 in - NNW 3.5 mph - N/A   Unknown
11:52 PM 64.9 °F - 59.0 °F 81% 29.79 in - Calm Calm - N/A   Unknown